Fort Worth Alliance, TX

11:30 PM CDT on June 28, 2017 (GMT -0500)
Fort Worth Alliance

Weather History for KAFW - January, 2014

Change the Weather History Date:

Tuesday, January 14, 2014

  Actual Average Record
Temperature  
Mean Temperature 48 °F -  
Max Temperature 63 °F 54 °F 73 °F (2004)
Min Temperature 34 °F 32 °F 25 °F (1999)
Degree Days  
Heating Degree Days 16    
Moisture  
Dew Point 23 °F    
Average Humidity 42    
Maximum Humidity 59    
Minimum Humidity 21    
Precipitation  
Precipitation 0.00 in - - ()
Sea Level Pressure  
Sea Level Pressure 30.14 in    
Wind  
Wind Speed 6 mph (NNW)    
Max Wind Speed 28 mph    
Max Gust Speed 36 mph    
Visibility 10 miles    
Events      
Averages and records for this station are not official NWS values.
T = Trace of Precipitation, MM = Missing Value Source: NWS Daily Summary

Daily Weather History Graph

Daily Weather History Graph

Search for Another Location

Airport or City:

Trip Planner

Search our weather history database for the weather conditions in past years. The results will help you decide how hot, cold, wet, or windy it might be!

Date:

Astronomy

Jan. 14, 2014 Rise Set
Actual Time 7:32 AM CST 5:44 PM CST
Civil Twilight 7:05 AM CST 6:11 PM CST
Nautical Twilight 6:35 AM CST 6:41 PM CST
Astronomical Twilight 6:05 AM CST 7:11 PM CST
Moon 4:49 PM CST (1/14) 6:09 AM CST (1/14)
Length of Visible Light 11h 05m
Length of Day
10h 12m
Waxing Gibbous, 98% of the Moon is Illuminated
Jan 14
Waxing Gibbous
Jan 15
Full
Jan 23
Last Quarter
Jan 30
New
Feb 6
First Quarter

Hourly Weather History & Observations

Time (CST) Temp. Windchill Dew Point Humidity Pressure Visibility Wind Dir Wind Speed Gust Speed Precip Events Conditions
12:53 AM 36.0 °F - 21.0 °F 55% 30.04 in 10.0 mi Calm Calm - N/A   Clear
1:53 AM 37.9 °F 34.4 °F 21.0 °F 51% 30.03 in 10.0 mi SW 4.6 mph - N/A   Clear
2:53 AM 39.0 °F 34.0 °F 21.0 °F 49% 30.02 in 10.0 mi SW 6.9 mph - N/A   Clear
3:53 AM 37.0 °F - 19.9 °F 50% 30.01 in 10.0 mi Calm Calm - N/A   Clear
4:53 AM 34.0 °F - 21.0 °F 59% 30.01 in 10.0 mi Calm Calm - N/A   Clear
5:53 AM 34.0 °F - 19.9 °F 56% 30.01 in 10.0 mi Calm Calm - N/A   Clear
6:53 AM 34.0 °F 29.8 °F 21.0 °F 59% 30.02 in 10.0 mi SSW 4.6 mph - N/A   Clear
7:53 AM 35.1 °F - 21.9 °F 59% 30.04 in 10.0 mi Calm Calm - N/A   Clear
8:53 AM 41.0 °F - 25.0 °F 53% 30.06 in 10.0 mi Calm Calm - N/A   Clear
9:53 AM 50.0 °F - 25.0 °F 38% 30.08 in 10.0 mi Variable 3.5 mph - N/A   Clear
10:53 AM 55.9 °F - 21.0 °F 26% 30.10 in 10.0 mi NNW 9.2 mph 20.7 mph N/A   Clear
11:53 AM 59.0 °F - 21.0 °F 23% 30.08 in 10.0 mi North 11.5 mph - N/A   Partly Cloudy
12:53 PM 62.1 °F - 21.9 °F 21% 30.05 in 10.0 mi North 16.1 mph 20.7 mph N/A   Partly Cloudy
1:53 PM 61.0 °F - 25.0 °F 25% 30.06 in 10.0 mi NNE 18.4 mph 26.5 mph N/A   Partly Cloudy
2:53 PM 63.0 °F - 30.9 °F 30% 30.08 in 10.0 mi NNE 17.3 mph 23.0 mph N/A   Scattered Clouds
3:53 PM 63.0 °F - 32.0 °F 31% 30.12 in 10.0 mi NE 11.5 mph - N/A   Mostly Cloudy
4:53 PM 57.0 °F - 32.0 °F 39% 30.17 in 10.0 mi North 27.6 mph 35.7 mph N/A   Mostly Cloudy
5:53 PM 54.0 °F - 30.0 °F 40% 30.23 in 10.0 mi North 18.4 mph 26.5 mph N/A   Mostly Cloudy
6:53 PM 50.0 °F - 24.1 °F 36% 30.29 in 10.0 mi North 13.8 mph - N/A   Partly Cloudy
7:53 PM 46.0 °F 41.9 °F 21.9 °F 39% 30.32 in 10.0 mi NNW 8.1 mph - N/A   Clear
8:53 PM 45.0 °F 40.1 °F 21.0 °F 39% 30.35 in 10.0 mi NNW 9.2 mph - N/A   Clear
9:53 PM 42.1 °F 36.6 °F 19.9 °F 41% 30.37 in 10.0 mi NW 9.2 mph - N/A   Clear
10:53 PM 39.0 °F 34.0 °F 19.0 °F 45% 30.37 in 10.0 mi WNW 6.9 mph - N/A   Clear
11:53 PM 37.9 °F 32.7 °F 17.1 °F 43% 30.36 in 10.0 mi NW 6.9 mph - N/A   Clear